Location: Mahannah Oil Field
(37.4664°N, 96.6003°W)
Time: 02:30:41
(UTC+00:00)

A-11 Canister half - Pass Details

Date: 25 January 2021
Orbit: 1525 x 1684 km, 47.3° (Epoch: 02 March)

Event Time Altitude Azimuth Distance (km) Brightness Sun altitude
Rises 19:53:49 0° 226° (SW) 4,662 12.5 31.1°
Reaches altitude 10° 19:56:50 10° 224° (SW) 3,681 12.2 30.9°
Maximum altitude 20:06:03 73° 142° (SE) 1,595 9.8 30.2°
Drops below altitude 10° 20:15:28 10° 60° (ENE) 3,759 10.7 29.4°
Sets 20:18:35 0° 58° (ENE) 4,764 11.1 29.1°
